Regional Weather Roundup
Issued by NWS

Home | Current Version | Previous Version | Text Only | Print | Product List | Glossary On
Versions: 1 2 3 4 5 6 7 8 9 10 11 12 13 14 15 16 17 18 19 20 21 22 23 24 25 26 27 28 29 30 31 32 33 34 35 36 37 38 39 40 41 42 43 44 45 46 47 48 49 50
825
ASUS43 KLSX 190707
RWRMO

WEATHER SUMMARY FOR MISSOURI
NATIONAL WEATHER SERVICE SPRINGFIELD MO
100 AM CST MON FEB 19 2018

NOTE: "FAIR" INDICATES FEW OR NO CLOUDS BELOW 12,000 FEET WITH NO
       SIGNIFICANT WEATHER AND/OR OBSTRUCTIONS TO VISIBILITY.
       CURRENT SKY AND/OR WEATHER CONDITIONS ARE NOT AVAILABLE FOR
       CHILLICOTHE AND FARMINGTON.

MOZ001>031-035>038-043-044-053-054-190800-
...NORTHERN AND WESTERN MISSOURI...

CITY           SKY/WX    TMP DP  RH WIND       PRES   REMARKS
KANSAS CTY INT DRIZZLE   53  50  89 S17       29.66F
KANSAS C DTWN  CLOUDY    56  50  80 S12       29.68F
LEE`S SUMMIT   CLOUDY    53  52  96 S17G24    29.69F FOG
ST JOSEPH      CLOUDY    53  50  89 S16       29.64F
CHILLICOTHE      N/A     52  39  61 S8        29.72F
KIRKSVILLE     CLOUDY    49  43  80 S8        29.76F

$$
MOZ066>068-077>081-088>096-101>105-190800-
...SOUTHWEST MISSOURI...

CITY           SKY/WX    TMP DP  RH WIND       PRES   REMARKS
SPRINGFIELD    CLOUDY    51  49  92 S17       29.83F
JOPLIN         CLOUDY    58  57  97 S23G35    29.78S

$$
MOZ032>034-039>042-045>050-055>058-069>072-190800-
...CENTRAL MISSOURI...

CITY           SKY/WX    TMP DP  RH WIND       PRES   REMARKS
COLUMBIA       CLOUDY    53  49  86 S15G23    29.80S
JEFFERSON CITY CLOUDY    53  49  86 S13       29.82S
ROLLA          CLOUDY    51  49  92 S17G28    29.86F
SEDALIA        CLOUDY    54  52  93 S13       29.76F
WHITEMAN AFB   CLOUDY    55  51  87 S15       29.70S
WARRENSBURG    CLOUDY    54  52  94 S9        29.73S
OSAGE BEACH    CLOUDY    52  49  89 S9        29.83F

$$
MOZ051-052-059>065-190800-
...EAST CENTRAL MISSOURI...

CITY           SKY/WX    TMP DP  RH WIND       PRES   REMARKS
ST LOUIS INTL  CLOUDY    52  46  80 S15       29.89R
SPIRIT OF STL  CLOUDY    53  47  79 S5        29.87F
ST CHARLES     CLOUDY    52  45  77 S7        29.88S

$$
MOZ072>076-082>087-097>100-106>115-190800-
...SOUTH CENTRAL AND SOUTHEAST MISSOURI...

CITY           SKY/WX    TMP DP  RH WIND       PRES   REMARKS
CAPE GIRARDEAU CLOUDY    52  50  93 S15       30.01F
FARMINGTON     CLOUDY    50  48  93 S15G21    29.95S
POPLAR BLUFF   CLOUDY    52  52 100 S13       30.01R FOG
WEST PLAINS    CLOUDY    49  48  97 S10       29.95F FOG

$$



USA.gov is the U.S. government's official web portal to all federal, state and local government web resources and services.